Regional Weather Roundup
Issued by NWS Cleveland, OH

Home | Current Version | Previous Version | Graphics & Text | Print | Product List | Glossary On
Versions: 1 2 3 4 5 6 7 8 9 10 11 12 13 14 15 16 17 18 19 20 21 22 23 24 25 26 27 28 29 30 31 32 33 34 35 36 37 38 39 40 41 42 43 44 45 46 47 48 49 50
000
ASUS41 KCLE 050910
RWRCLE
OHIO REGIONAL WEATHER ROUNDUP
NATIONAL WEATHER SERVICE WILMINGTON, OH
500 AM EDT SUN JUL 05 2015

NOTE: "FAIR" INDICATES FEW OR NO CLOUDS BELOW 12,000 FEET WITH NO
SIGNIFICANT WEATHER AND/OR OBSTRUCTIONS TO VISIBILITY.

OHZ001>008-015>018-024>027-034-035-043-044-051000-
   NORTHWEST OHIO

CITY           SKY/WX    TMP DP  RH WIND       PRES   REMARKS
DEFIANCE       CLEAR     61  58  90 CALM      30.08R FOG
FINDLAY        PTCLDY    62  58  86 CALM      30.07R
TOLEDO EXPRESS CLEAR     55  54  96 CALM      30.08R
TOLEDO EXEC    CLEAR     60  53  77 CALM      30.09R
LIMA           PTCLDY    59  57  93 CALM      30.08R
$$

OHZ009>014-019>023-028>033-038-089-051000-
   NORTHEAST OHIO

CITY           SKY/WX    TMP DP  RH WIND       PRES   REMARKS
CLE-HOPKINS    PTCLDY    57  52  83 CALM      30.11R
CLE-LAKEFRONT  CLEAR     62  52  69 S5        30.08R
CUY CO. ARPT   NOT AVBL
LORAIN-ELYRIA  PTCLDY    56  54  93 CALM      30.09S FOG
ASHTABULA      CLEAR     54  52  93 CALM      30.11R FOG
AKRON-CANTON   PTCLDY    59  51  75 CALM      30.10R
WOOSTER        MOCLDY    54  52  93 CALM      30.10S
MANSFIELD      PTCLDY    56  56 100 SE3       30.09S FOG
YOUNGSTOWN     PTCLDY    53  51  93 E6        30.10S
$$

OHZ042-051>053-060>062-070>072-077>081-051000-
  SOUTHWEST OHIO

CITY           SKY/WX    TMP DP  RH WIND       PRES   REMARKS
CINC-COVINGTON CLOUDY    68  60  75 CALM      30.06S
CINC-LUNKEN    CLOUDY    62  62 100 CALM      30.06S FOG
HAMILTON       MOCLDY    61  60  97 CALM      30.07S FOG
DAYTON         MOCLDY    65  59  81 CALM      30.09R
WRIGHT-PAT AFB CLEAR     61  59  94 CALM      30.07R FOG
DAYTON GENERAL MOCLDY    61  58  90 E5        30.06S
WILMINGTON     MOCLDY    61  57  87 SE3       30.07S
$$

OHZ036-037-039>041-045>050-054>059-063>069-073>076-082>088-051000-
  CENTRAL AND SOUTHEAST OHIO

CITY           SKY/WX    TMP DP  RH WIND       PRES   REMARKS
COLUMBUS       CLOUDY    63  55  75 E3        30.07S
OSU AIRPORT    MOCLDY    60  57  89 CALM      30.08R FOG
BOLTON FIELD   MOCLDY    58  58  99 CALM      30.08R FOG
RICKENBACK AFB MOCLDY    60  57  92 CALM      30.07R
NEWARK         MOCLDY    56  54  93 CALM      30.08S FOG
MARION         PTCLDY    59  56  89 CALM      30.08S FOG
LANCASTER      MOCLDY    57  55  93 CALM      30.08S FOG
ZANESVILLE     MOCLDY    59  56  89 CALM      30.08S FOG
NEW PHILLY     PTCLDY    55  54  96 CALM      30.10S FOG
$$


USA.gov is the U.S. government's official web portal to all federal, state and local government web resources and services.